Location: Aero Estates Airport (historical)
(33.2985°N, 96.8642°W)
Time: 02:35:10
(UTC+00:00)

BlueWalker 3 - Pass Details

Date: 21 January 2026
Orbit: 450 x 461 km, 53.2° (Epoch: 14 February)

Event Time Altitude Azimuth Distance (km) Brightness Sun altitude
Rises 01:44:20 0° 260° (W) 2,447 6.9 -24.2°
Reaches altitude 10° 01:46:58 10° 280° (W) 1,576 5.4 -24.7°
Maximum altitude 01:49:27 18° 325° (NW) 1,181 4.1 -25.2°
Enters shadow 01:49:31 18° 326° (NW) 1,182 4.0 -25.2°
